Weather History for Whitefield, NH

Change the Weather History Date:

Friday, July 5, 2013

  Actual Average Record
Temperature  
Mean Temperature 75 °F -  
Max Temperature 89 °F 74 °F 89 °F (2003)
Min Temperature 62 °F 48 °F 41 °F (2008)
Cooling Degree Days 10    
Growing Degree Days 25 (Base 50)    
Moisture  
Dew Point 64 °F    
Average Humidity 84    
Maximum Humidity 94    
Minimum Humidity 49    
Precipitation  
Precipitation 0.01 in - - ()
Sea Level Pressure  
Sea Level Pressure 30.13 in    
Wind  
Wind Speed 1 mph (West)    
Max Wind Speed 13 mph    
Max Gust Speed 16 mph    
Visibility 5 miles    
Events Fog    
Averages and records for this station are not official NWS values.
T = Trace of Precipitation, MM = Missing Value Source: NWS Daily Summary

Daily Weather History Graph

Daily Weather History Graph

Search for Another Location

Airport:

Trip Planner

Search our weather history database for the weather conditions in past years. The results will help you decide how hot, cold, wet, or windy it might be!

Date:

Astronomy

Jul. 05, 2013 Rise Set
Actual Time 5:08 AM EDT 8:33 PM EDT
Civil Twilight 4:32 AM EDT 9:09 PM EDT
Nautical Twilight 3:44 AM EDT 9:56 PM EDT
Astronomical Twilight 2:44 AM EDT 10:56 PM EDT
Moon 3:07 AM EDT (7/5) 6:23 PM EDT (7/5)
Length of Visible Light 16h 37m
Length of Day
15h 24m
Waning Crescent, 6% of the Moon is Illuminated
Jul 5
Waning Crescent
Jul 8
New
Jul 15
First Quarter
Jul 22
Full
Jul 29
Last Quarter

Hourly Weather History & Observations

Time (EDT) Temp. Heat Index Dew Point Humidity Pressure Visibility Wind Dir Wind Speed Gust Speed Precip Events Conditions
12:20 AM 66.2 °F - 64.4 °F 94% 30.14 in 1.2 mi Calm Calm - N/A   Scattered Clouds
12:30 AM 66.2 °F - 64.4 °F 94% 30.14 in 3.0 mi Calm Calm - N/A   Partly Cloudy
12:52 AM 68.0 °F - 64.9 °F 90% 30.13 in 3.0 mi Calm Calm - N/A   Clear
12:56 AM 68.0 °F - 64.4 °F 88% 30.14 in 2.5 mi Calm Calm - N/A   Partly Cloudy
1:02 AM 66.2 °F - 64.4 °F 94% 30.14 in 1.0 mi Calm Calm - N/A   Clear
1:11 AM 66.2 °F - 64.4 °F 94% 30.14 in 1.2 mi Calm Calm - N/A   Partly Cloudy
1:24 AM 66.2 °F - 64.4 °F 94% 30.14 in 0.8 mi Calm Calm - N/A   Mist
1:33 AM 66.2 °F - 62.6 °F 88% 30.14 in 1.2 mi Calm Calm - N/A   Partly Cloudy
1:45 AM 66.2 °F - 62.6 °F 88% 30.14 in 3.0 mi Calm Calm - N/A   Partly Cloudy
1:52 AM 66.0 °F - 64.0 °F 93% 30.13 in 2.5 mi Calm Calm - N/A   Clear
2:08 AM 64.4 °F - 62.6 °F 94% 30.14 in 5.0 mi Calm Calm - 0.01 in   Clear
2:19 AM 64.4 °F - 62.6 °F 94% 30.14 in 5.0 mi Calm Calm - 0.01 in   Scattered Clouds
2:30 AM 64.4 °F - 62.6 °F 94% 30.14 in 4.0 mi Calm Calm - 0.01 in   Mostly Cloudy
2:44 AM 64.4 °F - 62.6 °F 94% 30.14 in 1.8 mi Calm Calm - 0.01 in   Mostly Cloudy
2:52 AM 64.0 °F - 62.1 °F 93% 30.13 in 2.0 mi Calm Calm - 0.01 in   Scattered Clouds
3:04 AM 64.4 °F - 62.6 °F 94% 30.14 in 1.2 mi Calm Calm - N/A   Mostly Cloudy
3:15 AM 64.4 °F - 62.6 °F 94% 30.14 in 3.0 mi Calm Calm - N/A   Mostly Cloudy
3:27 AM 64.4 °F - 62.6 °F 94% 30.15 in 1.5 mi Calm Calm - N/A   Mostly Cloudy
3:30 AM 64.4 °F - 62.6 °F 94% 30.15 in 0.8 mi Calm Calm - N/A   Mist
3:52 AM 64.0 °F - 61.0 °F 90% 30.14 in 1.0 mi Calm Calm - N/A   Mist
4:08 AM 62.6 °F - 60.8 °F 94% 30.15 in 2.0 mi Calm Calm - N/A   Mostly Cloudy
4:17 AM 64.4 °F - 60.8 °F 88% 30.15 in 1.0 mi Calm Calm - N/A   Mist
4:27 AM 62.6 °F - 60.8 °F 94% 30.15 in 2.0 mi Calm Calm - N/A   Mostly Cloudy
4:31 AM 62.6 °F - 60.8 °F 94% 30.15 in 5.0 mi Calm Calm - N/A   Scattered Clouds
4:52 AM 62.1 °F - 60.1 °F 93% 30.15 in 1.0 mi Calm Calm - N/A   Mist
5:03 AM 62.6 °F - 60.8 °F 94% 30.16 in 0.5 mi Calm Calm - N/A Fog Fog
5:43 AM 62.6 °F - 59.0 °F 88% 30.17 in 1.2 mi Calm Calm - N/A   Mostly Cloudy
5:50 AM 62.6 °F - 60.8 °F 94% 30.17 in 3.0 mi Calm Calm - N/A   Mostly Cloudy
5:52 AM 62.1 °F - 60.1 °F 93% 30.16 in 5.0 mi Calm Calm - N/A   Mostly Cloudy
6:21 AM 64.4 °F - 62.6 °F 94% 30.17 in 6.0 mi Calm Calm - N/A   Scattered Clouds
6:52 AM 68.0 °F - 64.9 °F 90% 30.16 in 7.0 mi Calm Calm - N/A   Partly Cloudy
7:52 AM 73.9 °F - 69.1 °F 85% 30.16 in 10.0 mi Calm Calm - N/A   Clear
8:52 AM 79.0 °F - 64.9 °F 62% 30.15 in 10.0 mi WSW 5.8 mph - N/A   Clear
9:52 AM 80.1 °F 81.9 °F 64.9 °F 60% 30.15 in 10.0 mi Variable 3.5 mph - N/A   Clear
10:52 AM 81.0 °F 83.0 °F 66.0 °F 60% 30.14 in 10.0 mi West 4.6 mph - N/A   Scattered Clouds
11:52 AM 84.0 °F 86.5 °F 66.9 °F 56% 30.13 in 10.0 mi West 3.5 mph - N/A   Partly Cloudy
12:52 PM 84.9 °F 87.6 °F 66.9 °F 55% 30.11 in 10.0 mi WNW 12.7 mph 16.1 mph N/A   Partly Cloudy
1:52 PM 88.0 °F 92.1 °F 69.1 °F 53% 30.09 in 10.0 mi West 9.2 mph 16.1 mph N/A   Partly Cloudy
2:52 PM 88.0 °F 92.1 °F 69.1 °F 53% 30.07 in 10.0 mi Variable 5.8 mph - N/A   Partly Cloudy
3:52 PM 88.0 °F 90.7 °F 66.9 °F 49% 30.06 in 10.0 mi WSW 8.1 mph - N/A   Partly Cloudy
4:52 PM 82.9 °F 85.8 °F 68.0 °F 60% 30.06 in 10.0 mi SW 3.5 mph - N/A   Clear
5:52 PM 82.9 °F 87.0 °F 70.0 °F 65% 30.07 in 10.0 mi Calm Calm - N/A   Mostly Cloudy
6:52 PM 80.1 °F 82.9 °F 69.1 °F 69% 30.07 in 10.0 mi Calm Calm - 0.00 in   Scattered Clouds
7:52 PM 78.1 °F - 70.0 °F 76% 30.05 in 10.0 mi ENE 3.5 mph - 0.00 in   Clear
8:52 PM 75.9 °F - 70.0 °F 82% 30.06 in 10.0 mi Calm Calm - N/A   Mostly Cloudy
9:52 PM 73.0 °F - 69.1 °F 87% 30.07 in 6.0 mi Calm Calm - N/A   Clear
10:52 PM 71.1 °F - 68.0 °F 90% 30.06 in 2.0 mi Calm Calm - N/A   Partly Cloudy
11:08 PM 69.8 °F - 66.2 °F 88% 30.08 in 5.0 mi Calm Calm - N/A   Clear
11:48 PM 68.0 °F - 64.4 °F 88% 30.09 in 2.5 mi Calm Calm - N/A   Clear
11:52 PM 68.0 °F - 64.9 °F 90% 30.07 in 4.0 mi Calm Calm - N/A   Clear